Race Results for
Stony Creek CX
Shelby Twp, MI
(Event Information)
View By:
CYCLO CROSS on 10/05/2008

Note: Ranking points are NOT upgrade points. An explanation of ranking points can be found here.


Men - SINGLE SPEED - Open

 Place Points NameCity, StateTime USAC #BibTeam
1540.00Wayne Cook   Clinton Twp., MI0:46:01.5 7671  685 MYSINGLESPEED.COM
2556.67Stephen Kinley   Lake Orion, MI0:47:07.9 217592  692 SOBE / CANNONDALE
3MARK TERRIAN   0:52:25.9  690 CYCLETHERAPY RACING
4590.01Jared Smerecki   Farmington Hills, MI0:52:51.4 284727  686 CYCLETHERAPY RACING

Men - JR - 1-14

 Place Points NameCity, StateTime USAC #BibTeam
1BRANDON GOOCHER   0:39:28.6  689 JACKS BICYCLE
2556.67Zoe Kissel   Riverview, MI-1 Lap 284580  688 TEAM SIGNOUTFITTERS.COM
3573.34Dylan Kissel   Riverview, MI-1 Lap 284571  687 TEAM SIGNOUTFITTERS.COM
4CHRIS SHAW   -1 Lap  691 CYCLEFIT

Men - MR - 35-99

 Place Points NameCity, StateTime USAC #BibTeam
1392.85Peter Ehmann   Bloomfield Hills, MI0:41:26.1 200606  444 GIANT-MI
2405.99Robert Selle   Oakland Twp, MI0:41:39.9 102586  447 BLOOMINGDALE CONSTRUCTION
3419.13Ryan Myers   Fort Wayne, IN0:41:52.0 83439  454 NUVO/CULTURAL TRAIL
5432.27Simon Bailey   Ann Arbor, MI0:42:06.6 160410  442 WOLVERINE SPORTS CLUB
6445.41Ron Stack   Fenton, MI0:42:21.4 177087  452 CYCLE FIT SPORTS CLUB
7458.55Mathew Baroli   Troy, MI0:42:41.3 163946  457 TEAM GIANT MICHIGAN
8471.69Jim Hilditch   Canton, MI0:42:51.4 234565  456 TREEFORT BIKES
9484.83Kevin McGrew   Northville, MI0:43:02.1 81733  446 AAVC
10RAYMOND AUGER   0:43:21.1  449 MAPLE LEAF CYCLING CLUB
11511.11David Strole   Fort Wayne, IN0:44:03.9 134319  455 DRT RACING
12524.25Jarod Makowski   Troy, MI0:44:11.9 43115  445 SMD
13537.39Scott Goocher   Flat Rock, MI0:44:19.1 252116  448 JACKS BICYCLE
14JOHN RIGDOM   0:44:26.9  453 SOUTH LYON CYCLE
15563.67Brian Mitchell   Ypsilanti, MI0:44:50.5 56162  450 TWO WHEEL TANGO/MORGAN+YORK
16576.81Thomas Clark   Sterling Heights, MI0:45:51.0 262346  443 SPECIALIZED/TAILWIND
17589.95Bruce Rivera   Beverly Hills, MI0:49:00.2 64577  459 ESSEX BRASS
DNFTom McArdle   Midland, MI 210151  451 STUBWAY
42059Timothy DiFalco   Royal Oak, MIMI 9497  458 ROYAL OAK

Men - MR - 45-99

 Place Points NameCity, StateTime USAC #BibTeam
1540.00Mark Wolowiec   Davisburg, MI0:41:51.1 41215  576 FLYING RHINO CYCLING CLUB
2544.55Michael Seaman   Mt Pleasant, MI0:43:03.8 32045  577 SPECIALIZED
3549.10Joseph Brown   Grayling, MI0:43:13.8 157319  569 FLYING RHINO CYCLING CLUB
4553.65Jeffrey Haney   Rockford, MI0:43:27.4 273412  575 CISCO CYCLING
5558.20Michael Belanger   St. Clair Shores, MI0:43:43.8 279343  570 MACOMB BIKE &FITNESS
6562.75Keith Riege   Lake Orion, MI0:44:24.7 29844  573 PAINT CREEK BICYCLES
7567.30Michael Green   Farmington Hills, MI0:44:51.8 261599  580 BIKEMAN.COM
8571.85Kenneth O'Day   Ypsilanti, MI0:45:21.1 51473  574 SPECIALIZED/ TWT
9576.40Jeff Wittbrodt   South Lyon, MI0:45:45.1 112078  579 RACING GREYHOUNDS
10580.95Calvin Stewart   Novi, MI0:46:53.1 176808  578 TREEFORT BIKES
11585.50Russell Kissel   Riverview, MI0:48:27.1 276762  571 TEAM SIGNOUTFITTERS.COM
12590.05Mark Lovejoy   Andover, MA0:48:42.3 151790  572 AAVC

Men - Pro - Open

 Place Points NameCity, StateTime USAC #BibTeam
1MICHAEL WISSINK   0:52:39.0  88 SPECIALIZED
2542.63Jeff Weinert   Lake Orion, MI0:52:39.1 37591  75 TEAM GIANT MICHIGAN
3545.26Michael Simonson   Oxford, MI0:53:17.9 199958  90 TREK MIDWEST FACTORY TEAM
4547.89Timothy Saari   Rochester Hills, MI0:53:20.9 197477  76 ESSEX BRASS
5550.52Jonathan Card   Sylvania, OH0:54:55.0 6078  74 SATURN/SHELL OF TOLEDO
6553.15Vincent Roberge   Redford, MI0:54:55.6 190250  89 LATHRUP INDUSTRIES
7555.78Matthew Ashley   Clarkston, MI0:55:04.0 192357  80 FLYING RHINO CYCLING CLUB
8558.41Christian Tanguy   Rochester, MI0:55:05.9 217038  94 WOLVERINE / AMERICAN CYCLE & FIT
9561.04Robert Foshag   Monroe, MI0:55:54.7 88653  86 SATURN/SHELL OF TOLEDO
10563.67Don Cameron   White Lake, MI0:56:31.7 94327  77 SPECIALIZED/TAILWIND
11566.30Eric Muehl   Mills River, NC0:56:32.2 246666  81 CYCLEFIT MULTISPORT
12568.93Rich Stark   Ann Arbor, MI0:57:10.2 210510  79 PRIORITY HEALTH
13571.56William Clikeman   Troy, MI0:57:24.9 212323  92 WOLVERINE / AMERICAN CYCLE & FIT
14MARK PARMELEE   0:57:26.9  78 CYCLETHERAPY RACING
15576.82Robert Herriman   Royal Oak, MI0:57:44.4 125151  91 WOLVERINE / AMERICAN CYCLE & FIT
16579.45Cory Stange   Millington, MI0:58:28.6 260216  85 CYCLEFIT MULTISPORT
17582.08Andrew Weir   South Ogden, UT0:58:38.4 169810  87 PRIORITY HEALTH
18584.71Zachary Edwards   Boulder, CO0:59:57.0 213958  82 DRT RACING
19TONY WIECZOREK   1:00:46.0  84 MESA CYCLES RACING TEAM
20589.97Brian Hancock   Alma, MI1:01:49.9 145099  83 TEAM GIANT MICHIGAN
DNFRobert Selle   Oakland Twp, MI 102586  93 BLOOMINGDALE CONSTRUCTION

Men - Cat 2/3 - Open

 Place Points NameCity, StateTime USAC #BibTeam
1542.50Steven Balogh   Canton, MIMI 199551  276 CANTON
1MATT WILLING   0:42:38.2  268 WHEELS IN MOTION
2DANIEL BANNINK   0:43:10.6  272 RUNGURU.COM
5547.50Patrick Russell   Berkley, MI0:43:39.2 197649  263 WOLVERINE SPORTS CLUB
6550.00Rafael Kronenberg   Ann Arbor, MI0:43:43.4 225309  280 HAMMER NUTRITION/CANNONDALE
7BRIAN JANKOWSKI   0:43:45.1  266 CYCLE TO FITNESS GREYHOUNDS
8555.00Thomas Barrett   Ann Arbor, MI0:44:16.5 244235  277 RIDE BOUTIQUE/AAVC
9557.50Hugh Smallwood   Pontiac, MI0:44:29.7 186135  278 CANNONDALE MIDWEST RACING
10560.00Scott Fabijanski   Royal Oak, MI0:45:02.1 256573  260 WOLVERINE SPORTS CLUB
11562.50Mark Caffyn   Ortonville, MI0:45:07.3 252670  259 FLYING RHINO CYCLING CLUB
12565.00Jonathan Marymor   New York, NY0:45:10.7 247385  275 UNIVERSITY OF MICHIGAN
13567.50Peter Thompson   Ortonville, MI0:45:12.1 245538  264 FLYING RHINO CYCLING CLUB
14570.00Christopher Matthews   Rochester Hills, MI0:45:44.6 276259  282 FLYING RHINO CYCLING CLUB
15572.50Jan Selow (1 - Cat2)   Sterling Heights, MI0:46:04.3 149336  269 UNATTACHED
17575.00Keith Feldt   Waterford, MI0:47:06.5 256165  261 FLYING RHINO CYCLING CLUB
18577.50Jan Gatowski   Beverly Hills, MI0:47:21.6 254326  267 FLYING RHINO CYCLING CLUB
20580.00David Johnson   Toledo, OH0:47:54.0 224884  274 MAUMEE VALLEY WHEELMAN
21582.50Derek Hill   Waterford, MI0:48:52.2 279612  283 CYCLETHERAPY
22BILL MIDKIFF   0:49:20.0  281 KINETIC SYSTEMS
23587.50Christopher Wiederhold   Petersburg, MI0:51:38.2 228761  265 MAUMEE VALLEY WHEELMAN
24590.00Douglas Gatto   Allen Park, MI0:52:38.8 196826  271 SOUTH LYON CYCLE
43187Scott Harrington   Sausalito, CAMI 15164  270 ANN ARBOR
43242Anthony Ponton   Macomb Twp, MIMI 197417  262 MACOMB
46504DAVID TONTANT   MI  279 GROSSE POINTE
47466CHRIS MAIN   MI  273 SHELBY

Men - Cat 4 - 19-39

 Place Points NameCity, StateTime USAC #BibTeam
1540.00Jason Melecosky   Oxford, MI0:27:10.9 275263  764 RBS CYCLING TEAM
4542.38John Osgood   Kimball, MI0:27:50.5 254343  757 TEAM SANDBAG
5544.76kevin dittmer   Novi, MI0:27:54.4 279592  772 RACING GREYHOUNDS
6547.14Brett Beddow   Grossepointe, MI0:28:02.8 279808  760 WOLVERINE SPORTS CLUB/AM CYCLE & FITNESS
7549.52Benjamin Miller   Quincy, MI0:28:08.1 254336  768 TEAM SANDBAG BFB
8GARY OLSON   0:28:24.9  756 N/A
9554.28Adam Naish   Rochester, MI0:28:30.4 272572  755 BLOOMINGDALE CONSTRUCTION
11556.66Derek Hill   Waterford, MI0:28:56.9 279612  750 CYCLETHERAPY
12TOM PAYN   0:29:11.0  765 TEAM FRASER
13561.42Brian Love   Clarkston, MI0:29:14.0 269681  769 FLYING RHINO CYCLING CLUB
15563.80Randulph Arellano   Dearborn, MI0:29:17.0 254387  762 TRAILS EDGE CYCLERY
16566.18Ryan McKinnie   Brighton, MI0:29:31.5 222912  754 0
17DANNY GEROW   0:29:35.2  759 TEAM GEROW
18570.94Patrick Robb   Royal Oak, MI0:30:15.3 48371  775 SOUTH LYON CYCLE
19SCOTT JANKOWSKI   0:30:33.7  752 RACING GREYHOUNDS
20575.70Douglas Jacobsen   Ann Arbor, MI0:30:38.6 226318  751 UNIVERSITY OF MICHIGAN
21578.08Casey Barnes   Fort Collins, CO0:31:28.1 283938  748 PAINT CREEK BICYCLES
22580.46Jonathan Decker   Moriches , NY0:32:13.1 209497  761 WEST MICHIGAN COAST RIDERS
23JASON SCHNEIDER   0:32:48.9  766 TEAM SANDBAG
24585.22Robert Shank   Livonia, MI0:33:03.5 173365  758 ANN ARBOR VELO CLUB
25587.60Shawn Schaffert   Clarkston, MI0:33:03.8 284970  770 CANNONDALE MIDWEST RACING
27JAMES DAMORE   0:40:51.4  774 CYCLETHERAPY
DNFED BARKER     773 CYCLETHERAPY RACING
27126TODD LAWRENCE   MI  767 CAPEC
27416Shawn McDonald   Rochester, MIMI 181816  771 FERNDALE
28325Matthew Bjurman   Ann Arbor, MIMI 254325  749 ANN ARBOR
29143STEPHEN KILLAR   MI  753 FERNDALE
33225NICK ISRAEL   MI  763 FARMINGTON HILLS

Men - Cat 4 - 40-99

 Place Points NameCity, StateTime USAC #BibTeam
1540.00Marc Dettman   Grand Rapids, MI0:28:21.6 215793  810 BISSELL CYCLING
2544.55Mark Olin   Rochester, MI0:28:47.4 270538  809 RBS CYCLING TEAM
3549.10Russell Kissel   Riverview, MI0:29:37.8 276762  804 TEAM SIGNOUTFITTERS.COM
4DOUGLAS REED   0:30:23.9  806 REED CONSTRUCTION SINCE 1958
5558.20James Irelan   Waterford, MI0:30:54.9 254338  803 TEAM GIANT-MICHIGAN
7562.75Bruce LeBlanc   Waterford, MI0:31:51.9 274004  812 FRCC
8567.30Jeff Wood   Royal Oak, MI0:32:19.4 249666  817 CYCLE TO FITNESS GREHOUNDS
10BRYAN WISSMAN   0:35:23.9  808 CANNONDALE MIDWEST
12TOM LINING   0:36:03.5  805 ROCHESTER MILLS BEER CO.
13JOHN ROMAIN   -1 Lap  807 PAINT CREEK BICYCLES
14585.50Mark Donakowski   Ypsilanti, MI-1 Lap 9771  816 CYCLE TO FITNESS
15BOB WYDRA   -1 Lap  811 FLYING RHINO CYCLING CLUB
31155James Gardner   Luna Pier, MIMI 278427  813 LUNA PIER
34366Robert Neuman   Chillicothe, OHMI 53682  814 ROYAL OAK
35565Brian Borger   Toledo, OHOH 284854  800 OREGON

Women - Pro - Open

 Place Points NameCity, StateTime USAC #BibTeam
1540.00Anne Schwartz   Grosse Pointe Woods, MI0:43:52.8 119057  150 FLYING RHINO CYCLING CLUB
2548.33Nicole Borem   Warsaw, IN0:48:06.3 184390  154 DRT RACING
3556.66Sandie Domagalski   Clarkston, MI0:48:36.8 262343  153 FLYING RHINO CYCLING CLUB
4564.99Laura Johnson   Ann Arbor, MI0:49:46.4 110465  156 PRIORITY HEALTH/AAVC
5573.32Susan Shaw   Fenton, MI-1 Lap 246829  151 CYCLE -FIT
6581.65Sarah Manning   -1 Lap 196005  155 CITY BIKE SHOP
7589.98Lillian Ruiz   Ypsilanti, MI-1 Lap 254346  152 TREEFORT BIKES

Women - Cat 4 - OPEN

 Place Points NameCity, StateTime USAC #BibTeam
1540.00Laura Melendez   Grand Rapids, MI0:32:22.3 225973  999 BISSELL CYCLING
3550.00Jennifer Dolenga   Clarkston, MI0:35:29.4 285061  954 CYCLETHERAPY
4560.00Ginger Wissman   Oxford, MI0:37:01.6 270536  956 CANNONDALE MIDWEST
6MEAGEN KACZMAREK   0:43:35.7  959 RBS CYCLING TEAM
7JENNIFER PAURICH   -1 Lap  958 PAINT CREEK BICYCLES
8590.00Leila Kissel   Riverview, MI-1 Lap 284583  955 TEAM SIGNOUTFITTERS.COM
34565Adrienne O'Day   Ypsilanti, MIMI 254330  815 YPSILANTI
37259JULIE SOMMERS   MI  957 FARMINGTON HILLS

Report missing or incorrect license numbers

Volkswagen
USACDFSpyBonk BreakerCUOREShimanoSierra Nevada
UCI USA Cycling is the official governing body for all disciplines of competitive cycling in the United States. The 501c3, membership-based organization aims both to achieve sustained success in international cycling competition and to grow competitive cycling in America while delivering an exceptional customer experience.
View Children's Online Privacy Protection Policy
US Olympic Committee